GFSMW_700_spd_168.txt.gz
Wind_Speed
33 39 41 38 36 37 32 30 27 24 25 27 32 33 35 32 31 31 31 29 28 29 28 27 27 28 28 27 26 26 28 28 29 30 30 28 26 26 26 27 27 26 26
32 39 44 43 40 38 37 36 32 29 29 30 28 31 36 37 35 35 33 31 30 30 29 28 29 30 30 29 29 30 30 29 28 27 26 25 26 25 26 26 26 26 25
38 38 45 48 44 40 41 40 38 34 33 34 33 29 32 38 40 38 34 32 31 30 30 28 29 30 30 30 31 31 31 30 27 22 21 22 23 23 24 24 23 24 25
38 41 45 46 46 41 41 44 40 38 37 36 32 29 30 33 37 36 35 33 31 30 30 29 30 31 32 32 32 32 31 29 27 24 20 19 20 20 21 22 23 24 26
43 45 47 45 46 45 43 43 44 43 38 34 29 31 31 31 35 37 35 32 31 31 30 30 31 32 33 34 34 33 31 28 26 24 22 18 18 20 21 22 22 28 30
36 42 49 52 50 43 42 42 45 43 36 29 26 29 28 27 29 31 33 32 30 30 30 32 32 34 34 33 32 30 27 25 24 23 20 19 18 18 18 20 20 26 31
31 38 44 54 50 42 41 44 42 35 26 26 27 34 30 24 25 27 29 30 29 31 33 34 34 34 32 30 30 29 27 22 24 22 21 21 22 21 20 21 21 24 27
12 15 31 39 38 41 41 34 25 20 21 26 27 33 31 25 27 29 28 26 30 31 33 33 33 33 31 31 26 20 17 19 22 23 21 21 22 21 21 22 21 23 26
11 10 16 25 22 17 14 12 17 21 24 27 28 30 29 28 28 29 27 26 27 28 30 32 33 32 29 25 21 19 21 19 22 21 23 21 20 21 22 22 22 22 24
21 20 22 23 23 32 32 27 23 24 27 30 31 30 30 28 28 28 27 27 28 30 31 32 33 34 35 33 30 17 18 19 22 22 22 22 22 22 23 23 24 23 24
12 16 21 19 19 22 27 31 30 30 32 34 33 31 27 27 28 28 29 30 32 33 35 37 38 37 32 22 15 17 23 20 19 19 19 20 21 23 23 22 22 24 25
10 11 15 18 19 20 24 26 29 30 29 27 26 23 23 25 28 29 30 35 37 36 39 40 37 36 24 16 20 20 19 19 19 19 19 19 22 23 22 22 21 23 24
22 28 33 27 19 18 19 21 22 21 23 22 19 19 20 21 23 27 33 36 37 34 37 43 39 27 23 17 16 21 19 18 18 18 19 21 23 21 20 20 21 22 23
24 22 25 26 23 22 21 21 24 23 22 22 20 19 21 21 23 27 31 33 33 35 34 35 35 32 26 18 19 20 18 19 18 18 20 22 21 21 20 20 22 22 22
22 18 21 22 22 20 22 20 20 22 17 17 15 13 12 13 15 20 20 20 24 26 24 27 33 25 15 17 19 18 18 18 19 20 20 20 19 19 19 20 20 20 22
17 16 17 19 20 21 19 20 16 13 14 16 17 17 18 18 15 12 16 22 24 18 19 17 20 21 21 12 19 17 18 18 19 19 19 18 19 19 19 20 20 21 21
21 23 22 21 21 22 20 20 18 19 20 20 21 19 19 20 21 22 24 16 19 18 20 18 16 21 22 21 20 15 18 19 18 17 18 18 18 19 20 21 20 20 20
23 24 25 21 23 25 26 25 25 22 21 19 18 19 21 23 24 21 22 21 15 18 19 19 17 21 20 21 16 18 17 18 18 18 18 19 19 18 20 20 19 18 17
24 23 22 21 23 24 28 27 24 21 17 14 15 17 20 21 21 24 23 22 22 22 25 19 21 22 20 20 20 15 15 18 19 20 21 20 18 18 18 18 17 16 17
22 23 25 25 27 29 26 20 16 14 14 15 18 20 22 23 25 24 23 23 23 23 25 19 17 18 23 22 17 15 16 18 19 20 20 20 19 18 16 15 16 15 16
23 24 25 26 27 17 14 15 16 16 18 21 22 23 27 27 28 26 23 24 23 24 25 24 23 23 22 18 15 16 18 18 20 20 19 19 18 16 15 15 15 15 16
26 27 25 22 18 16 15 16 17 19 21 22 23 23 26 27 30 31 30 30 26 24 23 25 24 20 18 17 17 17 18 18 21 20 18 17 15 15 14 14 14 14 14
27 27 25 21 17 19 19 19 21 23 24 23 22 23 24 26 26 28 27 25 28 31 27 24 21 20 19 18 18 17 16 19 20 18 18 16 14 14 13 13 13 13 12
27 25 22 21 20 22 23 24 25 26 26 24 22 22 22 23 23 24 23 27 27 23 19 19 18 19 19 19 19 17 16 19 19 18 17 15 14 13 13 13 13 13 13
21 22 22 22 22 22 23 25 27 29 29 27 26 25 22 18 19 22 23 22 22 21 18 17 18 19 20 20 19 17 18 20 19 17 16 14 13 12 12 12 13 12 13
22 24 24 22 21 22 25 27 30 31 31 28 26 25 24 22 21 21 20 20 20 17 17 18 18 20 21 20 20 19 19 20 18 16 15 14 12 11 12 12 13 13 14

GFSMW_700_spd_171.txt.gz
Wind_Speed
23 30 30 29 32 33 35 32 31 27 25 25 25 25 25 25 32 36 34 32 30 29 28 27 26 25 25 25 26 26 26 27 28 30 31 33 33 33 30 26 24 25 26
31 32 33 33 37 37 36 37 35 32 29 27 22 23 25 25 28 32 36 36 34 32 31 30 29 28 28 28 28 28 28 29 31 32 33 34 33 31 28 26 26 26 27
32 35 37 36 37 39 40 41 37 36 34 33 31 28 30 28 24 25 31 38 38 36 33 31 30 29 29 30 29 28 28 30 33 34 33 31 30 27 28 26 26 25 24
39 40 40 42 38 40 40 40 39 38 36 35 36 35 33 22 23 23 28 35 37 36 34 33 32 32 31 31 29 29 30 31 32 33 31 28 27 26 26 25 26 27 28
33 44 44 40 39 41 42 42 40 41 39 40 42 38 23 19 20 24 29 33 35 34 33 32 32 30 31 31 31 31 32 32 30 29 27 26 24 25 26 27 28 28 28
28 30 38 37 41 43 45 44 42 42 43 46 39 28 19 17 20 19 22 28 30 30 31 30 30 30 31 33 34 34 33 32 31 29 26 23 21 22 22 24 27 29 29
22 24 28 35 38 43 45 47 47 44 43 37 30 22 14 15 17 17 21 25 28 29 29 30 31 33 34 35 34 34 33 30 28 26 21 18 19 23 23 23 25 26 28
24 25 25 20 22 30 36 38 40 29 18 15 12 10 11 17 15 15 21 25 29 32 35 34 33 34 35 36 35 33 31 28 22 20 19 21 23 24 21 21 22 25 27
6 16 17 7 8 20 26 21 9 9 14 12 17 17 15 19 16 17 20 22 23 26 30 34 35 36 35 34 34 33 29 22 23 24 26 23 23 23 22 22 22 24 26
21 15 14 13 14 17 20 26 32 34 28 31 30 24 17 21 22 23 23 24 23 25 30 34 35 35 36 36 38 35 28 32 33 20 23 24 26 24 21 21 21 23 25
7 10 13 25 32 36 37 37 37 31 24 27 20 20 22 21 24 24 25 24 24 25 30 34 35 37 38 39 37 35 41 29 21 22 26 24 24 21 21 22 23 23 25
12 7 7 11 15 23 28 23 19 17 16 16 18 18 19 19 21 23 23 25 27 28 30 35 37 36 35 37 37 44 30 23 21 19 23 23 22 21 22 23 24 25 25
21 15 15 18 21 20 18 19 15 16 18 19 15 14 13 15 15 17 20 25 28 31 34 36 34 32 37 37 46 32 25 18 18 23 23 22 21 22 22 23 24 24 24
28 29 27 26 21 18 17 14 15 15 16 18 19 15 14 12 12 14 17 19 18 19 20 24 26 30 35 44 43 36 23 23 22 21 21 21 21 22 22 23 23 23 22
29 27 27 21 17 17 14 13 7 9 13 16 16 12 11 12 13 14 13 13 14 18 20 24 27 32 32 28 26 31 25 21 21 19 20 21 21 21 22 22 21 20 21
27 23 21 18 17 15 13 13 11 11 14 14 15 16 16 15 16 17 19 19 18 19 13 16 20 22 22 22 26 25 21 23 21 19 19 19 21 21 21 20 19 20 20
15 19 20 20 16 17 16 16 16 16 16 18 18 19 19 21 21 22 20 23 23 24 22 16 15 14 15 16 21 22 20 23 16 18 18 19 20 20 19 19 19 19 20
21 21 22 21 15 16 17 19 20 22 23 21 20 21 22 21 20 20 21 23 23 21 23 23 24 24 23 18 18 23 21 17 17 17 18 18 17 19 18 18 18 19 21
22 20 21 19 18 16 17 21 22 24 25 20 18 18 18 18 18 20 21 21 22 23 23 24 26 23 21 20 18 19 22 19 17 15 17 17 17 18 17 17 17 20 20
21 22 21 21 20 18 20 21 25 27 20 16 17 18 19 20 21 23 24 25 25 25 26 26 23 21 18 17 17 20 23 17 16 16 16 17 16 17 17 16 17 19 19
24 23 22 23 23 23 23 26 26 21 18 19 20 21 22 25 26 27 28 29 29 26 24 26 26 24 22 20 18 18 19 17 17 17 17 17 17 17 16 16 17 18 18
28 23 22 23 25 25 25 24 22 23 22 23 24 25 27 28 29 29 30 31 33 30 28 26 23 23 25 21 16 19 19 18 20 18 17 18 18 17 16 16 17 16 16
30 26 26 27 27 26 25 25 25 25 25 27 29 30 29 28 28 27 27 28 26 25 23 24 27 27 25 22 20 19 19 19 20 19 19 19 18 16 16 17 15 14 14
27 28 29 28 27 24 24 25 27 28 28 29 30 30 30 29 27 25 25 21 21 22 26 25 20 19 20 20 19 19 19 20 20 20 19 19 17 16 16 16 14 12 12
28 27 28 24 21 24 25 26 26 28 30 31 31 31 30 30 28 25 19 20 22 22 21 18 19 20 19 20 21 20 20 20 21 20 20 17 17 16 15 14 13 11 11
23 25 22 21 21 22 23 25 27 28 31 32 31 30 28 27 26 24 23 22 22 24 23 21 20 20 22 20 19 20 21 21 20 21 19 18 17 15 14 13 11 12 13

GFSMW_700_spd_174.txt.gz
Wind_Speed
22 21 20 22 23 27 29 29 29 28 26 24 24 29 26 26 26 28 30 33 32 31 31 31 31 30 28 27 25 25 25 25 25 25 24 26 27 29 32 31 30 27 25
25 24 22 22 23 26 31 31 32 32 30 28 26 25 25 23 25 28 29 31 35 35 34 33 32 31 29 27 27 27 27 27 27 26 26 28 30 30 32 31 31 28 26
25 27 29 29 27 29 31 34 35 33 33 33 32 32 30 30 28 29 30 26 30 36 36 35 34 32 30 28 28 28 28 29 29 28 28 29 32 33 33 31 29 28 27
33 35 34 34 33 32 34 35 36 38 37 37 36 36 36 36 37 31 34 24 27 31 35 35 33 33 31 29 27 28 28 29 29 29 29 31 32 32 31 30 28 27 28
28 32 34 39 43 44 41 35 33 40 40 42 40 40 39 35 36 38 22 23 29 29 31 32 34 33 31 31 31 28 29 30 31 31 32 32 30 29 28 28 28 28 28
26 27 30 33 33 37 38 36 35 38 40 40 42 42 42 40 38 37 29 24 24 26 28 30 31 31 33 30 29 31 29 31 33 33 31 29 29 29 27 25 25 27 30
22 21 23 27 26 26 29 30 32 38 40 42 41 37 37 32 27 36 24 21 22 23 24 26 29 29 29 31 31 31 32 32 32 33 29 28 28 27 23 25 32 30 30
26 24 24 23 25 20 20 16 23 33 37 41 31 15 19 18 20 15 18 16 14 18 22 25 28 30 31 32 32 33 34 34 34 30 29 26 24 23 29 29 27 28 27
12 12 16 20 21 11 5 15 24 28 21 17 20 23 16 13 8 11 15 14 18 19 20 23 29 32 32 34 35 35 35 32 33 32 29 26 27 34 27 25 25 26 27
11 14 14 12 11 9 11 12 17 21 29 34 35 16 12 11 12 14 21 19 23 21 22 23 30 34 35 36 36 34 33 35 35 29 29 34 39 26 25 24 24 26 26
5 6 8 9 8 16 22 28 33 35 35 37 24 21 17 13 13 16 16 17 22 22 22 24 29 32 35 38 35 31 33 33 32 34 39 43 27 25 24 23 22 22 24
16 17 18 17 13 12 17 22 23 20 16 12 14 9 13 13 11 18 19 17 19 21 23 24 26 29 32 35 36 36 35 31 35 36 44 29 23 22 21 22 23 22 23
21 19 18 13 21 22 22 22 19 16 12 8 9 8 5 7 9 15 12 11 13 16 17 20 24 28 31 33 33 33 27 32 33 40 29 22 23 24 23 21 21 21 21
24 15 23 31 29 26 20 18 16 12 7 8 11 9 7 5 6 6 6 6 8 11 12 13 13 15 17 20 22 24 31 37 36 35 25 22 23 23 21 21 20 20 20
22 26 26 27 28 21 17 14 11 8 7 10 11 10 9 9 11 11 10 11 10 11 10 13 14 13 15 20 24 29 32 33 34 38 28 22 23 22 20 19 20 20 19
26 24 24 30 27 18 9 11 11 11 11 13 14 15 17 17 16 16 17 18 18 18 18 18 20 20 18 17 17 20 23 26 29 26 24 24 18 18 18 17 18 19 19
22 22 25 27 21 15 10 10 12 12 14 15 16 19 20 19 20 21 22 19 18 19 18 18 19 19 20 22 24 21 19 20 31 25 23 19 17 17 17 17 17 18 18
23 21 22 21 20 17 14 12 13 14 16 18 19 20 19 21 20 17 18 17 18 19 19 20 21 23 24 24 26 23 19 18 22 22 21 17 17 17 17 16 16 17 18
27 23 22 23 22 20 19 15 18 20 20 20 22 20 21 21 20 18 18 19 19 20 21 23 25 26 24 21 20 20 19 17 20 23 21 18 16 15 15 14 15 17 17
27 23 24 24 23 22 20 19 21 21 21 23 22 22 22 20 20 20 21 23 24 24 25 26 26 27 22 19 19 18 18 16 17 19 19 15 12 13 15 15 15 16 15
21 22 22 21 21 21 22 22 22 22 23 27 24 22 22 23 24 25 26 28 29 28 30 29 29 26 26 23 23 21 19 19 18 19 15 10 12 14 14 14 15 14 14
19 21 21 22 22 20 21 23 25 24 27 26 24 23 25 27 28 30 31 32 32 32 31 31 29 26 24 21 21 23 22 19 17 18 13 13 14 14 14 14 14 13 14
20 25 25 27 24 21 23 25 29 28 26 26 26 27 28 31 33 33 34 35 34 32 31 27 24 22 22 25 25 25 24 21 17 17 15 15 16 15 15 14 14 14 14
21 23 23 28 27 26 27 29 30 28 28 27 27 29 30 32 35 36 35 34 31 29 24 21 22 25 27 25 22 22 23 21 17 18 17 17 18 17 16 16 15 15 13
20 18 23 27 30 32 30 31 28 26 27 28 28 30 33 35 35 33 31 31 29 24 24 25 26 27 25 23 23 23 22 20 19 18 18 19 20 19 18 16 15 14 14
27 22 31 32 32 29 30 27 26 27 27 27 28 32 34 34 33 31 30 29 26 24 25 25 26 26 25 25 22 21 20 19 18 18 19 21 21 20 18 16 15 16 14

GFSMW_700_spd_180.txt.gz
Wind_Speed
27 22 22 21 26 28 28 29 32 35 35 33 33 32 30 31 33 35 37 37 37 37 36 40 37 37 36 35 34 34 33 33 31 31 31 29 28 28 27 26 26 25 24
26 22 20 26 26 28 26 30 30 33 33 32 31 34 33 31 30 28 31 35 37 37 39 41 42 40 40 39 38 37 36 35 33 34 33 32 31 31 29 29 28 26 23
26 26 21 22 28 28 30 30 27 31 34 34 37 35 34 31 30 29 27 29 34 38 41 43 43 41 42 41 41 39 37 36 35 34 34 33 34 30 29 29 28 25 24
24 25 23 23 26 28 30 31 29 28 36 38 37 36 35 34 35 38 35 34 34 36 39 39 38 48 47 42 42 40 38 37 35 35 33 31 32 30 29 29 27 26 26
19 22 22 23 26 29 31 33 34 34 35 39 41 41 41 40 41 40 46 48 36 38 40 41 46 41 43 47 42 38 38 36 37 33 31 30 27 25 28 28 27 27 28
20 17 20 20 21 24 30 35 36 37 39 39 41 43 42 40 39 40 44 48 53 57 58 62 63 59 49 44 48 42 36 32 32 31 30 29 26 26 27 28 30 28 29
18 19 19 20 19 19 21 21 26 31 34 32 35 37 41 45 43 42 46 51 47 42 36 28 33 48 43 33 37 26 28 32 32 32 32 38 35 36 27 26 32 34 30
21 22 20 19 19 19 18 18 18 23 29 30 27 32 37 36 44 40 39 17 14 15 15 28 16 15 23 25 12 16 22 28 36 48 48 45 35 34 28 30 34 30 33
20 21 20 19 19 18 13 7 5 9 15 19 27 35 26 38 23 40 29 31 41 22 19 14 16 18 18 20 22 23 24 26 27 32 35 35 33 36 36 38 41 30 34
21 21 20 19 15 8 9 9 6 5 5 8 14 19 24 22 24 26 30 30 14 9 8 12 16 20 20 22 23 25 26 26 28 31 32 34 37 37 34 31 30 29 29
20 20 20 18 14 12 11 9 9 10 12 15 19 21 16 16 19 17 12 11 10 11 14 16 20 22 23 24 26 26 26 26 28 29 31 33 35 35 34 32 32 34 34
22 22 19 15 14 13 13 11 10 12 13 14 15 15 15 10 7 7 9 9 11 13 16 18 20 22 24 25 26 27 27 29 29 29 29 30 31 30 28 34 38 40 37
25 22 17 13 15 17 16 15 16 16 17 18 15 11 8 4 4 6 7 9 11 12 15 17 19 19 19 19 20 20 21 21 21 23 26 28 27 27 33 35 36 33 34
27 19 17 16 19 22 21 19 21 19 18 16 14 11 10 7 6 7 9 8 10 11 12 13 13 13 14 14 15 17 17 19 21 21 22 25 29 31 35 36 32 34 28
31 18 17 23 22 25 23 21 21 19 17 17 17 13 10 9 9 9 10 11 13 13 14 14 14 15 16 17 17 17 18 18 18 21 25 28 29 32 36 39 38 33 31
26 25 24 26 28 29 26 21 20 20 20 20 18 13 12 13 12 12 13 14 14 16 17 15 15 15 14 13 15 16 19 21 25 27 28 28 28 29 33 37 40 33 25
25 22 25 30 27 33 25 25 23 25 26 23 22 20 17 13 12 14 16 15 15 17 17 15 14 15 16 17 16 17 20 21 22 24 27 28 27 24 26 32 34 29 27
26 24 23 23 26 32 36 31 30 29 29 26 25 22 17 14 14 13 15 16 17 17 18 18 18 17 16 16 17 18 19 21 22 22 22 23 18 17 21 23 23 24 17
46 38 29 32 34 35 40 39 34 34 32 28 26 23 18 16 15 15 18 19 19 17 16 17 17 17 18 19 22 23 21 21 20 22 22 21 17 15 17 23 22 17 14
38 37 39 38 36 31 31 36 37 38 32 28 26 22 20 18 19 20 22 22 20 20 20 21 23 23 23 24 25 25 25 23 24 23 24 22 20 16 18 22 18 13 10
41 41 42 39 37 36 35 35 35 37 32 28 25 24 25 23 25 26 25 23 24 23 24 25 27 27 28 28 27 26 24 25 25 22 22 22 20 18 14 16 14 11 13
38 39 37 35 37 40 39 37 34 33 33 30 28 28 28 26 28 28 27 27 25 25 26 28 30 31 30 29 26 25 24 23 22 22 23 23 22 19 18 20 11 12 15
33 35 35 36 37 40 43 38 37 35 33 34 32 31 31 31 30 29 28 27 26 27 30 31 33 33 31 28 25 25 23 22 22 22 24 24 22 20 22 16 14 15 15
28 30 29 34 40 38 40 37 36 36 35 35 32 33 33 30 30 28 25 26 28 29 32 33 34 32 29 29 24 21 22 24 25 24 24 22 22 22 21 16 16 16 16
36 32 31 31 33 38 38 38 35 35 34 34 34 34 31 30 29 26 25 26 27 31 32 34 33 30 26 27 23 24 26 27 26 25 23 22 21 22 19 17 17 17 18
35 38 36 30 30 36 39 37 35 37 39 35 33 32 30 29 27 26 27 26 28 30 31 30 30 25 26 25 26 27 27 27 25 22 20 20 20 21 19 18 18 18 19